Regional Weather Roundup
Issued by NWS

Home | Current Version | Previous Version | Text Only | Print | Product List | Glossary Off
Versions: 1 2 3 4 5 6 7 8 9 10 11 12 13 14 15 16 17 18 19 20 21 22 23 24 25 26 27 28 29 30 31 32 33 34 35 36 37 38 39 40 41 42 43 44 45 46 47 48 49 50

000
ASUS43 KDMX 300003
RWRIA

WEATHER ROUNDUP FOR IOWA
NATIONAL WEATHER SERVICE DES MOINES IA
700 PM CDT MON AUG 29 2016

NOTE: "FAIR" INDICATES FEW OR NO CLOUDS BELOW 12,000 FEET WITH NO
SIGNIFICANT WEATHER AND/OR OBSTRUCTIONS TO VISIBILITY.

* - THESE STATIONS ARE NOT NWS STATIONS...THUS NOT UNDER NWS
QUALITY CONTROL.  THEY ALSO DO NOT REPORT WEATHER SUCH
AS PRECIPITATION OR FOG.

IAZ001>003-012>014-020>022-031>034-043>046-300100-
   NORTHWEST IOWA

CITY           SKY/WX    TMP DP  RH WIND       PRES   REMARKS
CARROLL *      CLOUDY    75  72  88 S7G13     30.16R
CHEROKEE *     MOSUNNY   79  73  82 SE8       30.15R HX  83
DENISON *      CLOUDY    73  68  83 S16G30    30.17R
LE MARS *      PTSUNNY   82  72  69 S6        30.14S HX  87
ORANGE CITY *  CLOUDY    82  72  69 CALM      30.15S HX  87
SHELDON *      MOSUNNY   79  73  83 S5        30.14R HX  82
SIOUX CITY     CLOUDY    84  72  67 E5        30.14R HX  89
6HR MIN TEMP:  78; 6HR MAX TEMP:  85;

SPENCER        PTCLDY    80  71  74 S8        30.16R HX  84
6HR MIN TEMP:  80; 6HR MAX TEMP:  86;

STORM LAKE *   CLOUDY    77  73  88 SE6       30.18R
$$

IAZ055>058-069>071-079>083-090>094-300100-
   SOUTHWEST IOWA

CITY           SKY/WX    TMP DP  RH WIND       PRES   REMARKS
ATLANTIC *     CLOUDY    70  70 100 CALM      30.19R
AUDUBON *      LGT RAIN  72  68  88 SW3       30.20R
CLARINDA *       N/A     72  70  94 MISG      30.17F
COUNCIL BLFS * CLOUDY    72  68  88 E15G21    30.16F
CRESTON *      CLOUDY    77  72  83 CALM      30.18R
HARLAN  *      CLOUDY    70  70 100 N3        30.23R FOG
LAMONI         PTCLDY    75  72  90 NE6       30.16R
6HR MIN TEMP:  75; 6HR MAX TEMP:  88; 6HR PCP: TRACE;

RED OAK *      CLOUDY    73  70  88 N7        30.16S
SHENANDOAH *   PTSUNNY   75 -35   1 E10       30.14F
$$

IAZ047>049-059>061-072>074-084-300100-
   CENTRAL IOWA

CITY           SKY/WX    TMP DP  RH WIND       PRES   REMARKS
AMES           LGT RAIN  69  69 100 E3        30.15F
6HR MIN TEMP:  68; 6HR MAX TEMP:  86; 6HR PCP:  3.42;

ANKENY *         N/A    N/A N/A N/A MISG        N/A
BOONE *        CLOUDY    72  70  94 CALM      30.15F
CHARITON *       N/A     75  73  94 MISG      30.17R
DES MOINES     CLOUDY    75  70  84 E8        30.16R
6HR MIN TEMP:  74; 6HR MAX TEMP:  86; 6HR PCP:  0.62;

GRINNELL*      HVY RAIN  70  67  90 N10G18    30.21R
KNOXVILLE *    PTCLDY    77  72  83 N7        30.16R
MARSHALLTOWN   CLOUDY    71  69  93 SE8       30.17S
6HR MIN TEMP:  70; 6HR MAX TEMP:  83; 6HR PCP:  0.02;

NEWTON *       CLOUDY    72  72 100 E13       30.18S
PERRY *        RAIN      70  70  98 SE5       30.16F
$$

IAZ004>006-015-016-023>025-035-036-300100-
   NORTH CENTRAL IOWA

CITY           SKY/WX    TMP DP  RH WIND       PRES   REMARKS
ALGONA *       CLEAR     77  70  78 SE5       30.18R
ESTHERVILLE    CLEAR     75  73  93 S7        30.16R
6HR MIN TEMP:  75; 6HR MAX TEMP:  83;

FORT DODGE *   CLOUDY    75  68  78 SE7       30.18S
MASON CITY     CLEAR     74  69  85 S8        30.20R
6HR MIN TEMP:  70; 6HR MAX TEMP:  78; 6HR PCP:  0.03;

FOREST CITY *    N/A    N/A N/A N/A MISG        N/A
WEBSTER CITY * CLOUDY    73  70  88 S8        30.15F
IOWA FALLS *     N/A     73  68  84 SW3       30.19S
$$

IAZ007>011-017>019-026>030-037>042-050>054-066-300100-
   NORTHEAST IOWA

CITY           SKY/WX    TMP DP  RH WIND       PRES   REMARKS
CEDAR RAPIDS   CLOUDY    74  70  87 CALM      30.16S
6HR MIN TEMP:  74; 6HR MAX TEMP:  87;

CHARLES CITY * CLOUDY    77  75  94 S5        30.18S
CLINTON *      CLOUDY    74  72  93 E3        30.16F
DECORAH *      PTCLDY    77  73  88 CALM      30.17S
DUBUQUE        CLOUDY    76  72  87 SE5       30.18F
6HR MIN TEMP:  76; 6HR MAX TEMP:  82;

MONTICELLO *   CLOUDY    77  73  88 CALM      30.16S
OELWEIN *      CLOUDY    73  72  94 NW6       30.19R
WATERLOO       CLOUDY    71  68  90 N8        30.17R
6HR MIN TEMP:  70; 6HR MAX TEMP:  81; 6HR PCP:  0.02;

$$

IAZ064-065-067-068-078-300100-
   EAST CENTRAL IOWA

CITY           SKY/WX    TMP DP  RH WIND       PRES   REMARKS
DAVENPORT      LGT RAIN  73  70  90 CALM      30.16F
6HR MIN TEMP:  72; 6HR MAX TEMP:  87; 6HR PCP:  0.16;

IOWA CITY      CLOUDY    74  70  87 SE5       30.15F
6HR MIN TEMP:  74; 6HR MAX TEMP:  88; 6HR PCP:  0.03;

MT. PLEASANT * CLOUDY    76  76  99 CALM      30.13F
QUAD CITIES    MOCLDY    79  72  79 E7        30.14F HX  82
6HR MIN TEMP:  72; 6HR MAX TEMP:  87; 6HR PCP:  0.05;

$$

IAZ062-063-075>077-085>089-095>099-300100-
   SOUTHEAST IOWA

CITY           SKY/WX    TMP DP  RH WIND       PRES   REMARKS
BURLINGTON     CLOUDY    76  69  79 NE6       30.13F
6HR MIN TEMP:  76; 6HR MAX TEMP:  90;

FAIRFIELD *    PTCLDY    79  72  78 E7        30.13F HX  82
FORT MADISON *   N/A     75  70  83 E3        30.14F
KEOKUK *       PTCLDY    81  73  78 E6G12     30.11F HX  85
OSKALOOSA *      N/A     78  75  91 N6        30.15S HX  80
CENTERVILLE *    N/A     72  68  88 CALM      30.16R
OTTUMWA        MOCLDY    80  75  84 N6        30.14R HX  85
6HR MIN TEMP:  76; 6HR MAX TEMP:  86; 6HR PCP:  0.01;

WASHINGTON *   CLOUDY    77  73  88 E3        30.15F
$$

ABBREVIATIONS USED IN REMARKS
   TC - TEMPERATURES IN CELSIUS
  WCI - WIND CHILL INDEX
   HX - HEAT INDEX
  VSB - VISIBILITY
$$





USA.gov is the U.S. government's official web portal to all federal, state and local government web resources and services.